Stündliche Wetter Caucel

Heute, 30 Oktober, Freitag

Zeit Temperatur Niederschläge Wind Luftdruck Luftfeuchtigkeit
00:00 +26°C° 0.4 mm 3 m/S 760 mmHg 96%
01:00 +26°C° 1.3 mm 3 m/S 759 mmHg 96%
02:00 +25°C° 1.3 mm 3 m/S 759 mmHg 96%
03:00 +25°C° 1.3 mm 4 m/S 759 mmHg 96%
04:00 +25°C° 0.3 mm 3 m/S 759 mmHg 96%
05:00 +25°C° 0.3 mm 3 m/S 760 mmHg 95%
06:00 +25°C° 0.3 mm 3 m/S 760 mmHg 95%
07:00 +26°C° 0.1 mm 3 m/S 760 mmHg 92%
08:00 +27°C° 0.1 mm 4 m/S 761 mmHg 90%
09:00 +27°C° 0.1 mm 4 m/S 762 mmHg 87%
10:00 +28°C° 0.4 mm 4 m/S 761 mmHg 84%
11:00 +28°C° 0.4 mm 5 m/S 761 mmHg 82%
12:00 +29°C° 0.4 mm 5 m/S 761 mmHg 79%
13:00 +28°C° 0.1 mm 5 m/S 760 mmHg 80%
14:00 +27°C° 0.1 mm 5 m/S 760 mmHg 81%
15:00 +27°C° 0.1 mm 5 m/S 759 mmHg 81%
16:00 +26°C° 0 mm 4 m/S 760 mmHg 81%
17:00 +26°C° 0 mm 4 m/S 760 mmHg 81%
18:00 +26°C° 0 mm 3 m/S 760 mmHg 81%
19:00 +26°C° 0 mm 3 m/S 761 mmHg 83%
20:00 +25°C° 0 mm 3 m/S 762 mmHg 84%
21:00 +25°C° 0 mm 2 m/S 762 mmHg 86%
22:00 +25°C° 0 mm 2 m/S 762 mmHg 88%
23:00 +25°C° 0 mm 2 m/S 762 mmHg 89%

Morgen, 31 Oktober, Samstag

Zeit Temperatur Niederschläge Wind Luftdruck Luftfeuchtigkeit
00:00 +24°C° 0 mm 2 m/S 762 mmHg 91%
01:00 +24°C° 0 mm 2 m/S 762 mmHg 90%
02:00 +24°C° 0 mm 2 m/S 761 mmHg 90%
03:00 +24°C° 0 mm 1 m/S 761 mmHg 89%
04:00 +24°C° 0 mm 2 m/S 761 mmHg 89%
05:00 +25°C° 0 mm 2 m/S 761 mmHg 88%
06:00 +25°C° 0 mm 2 m/S 762 mmHg 87%
07:00 +26°C° 0 mm 2 m/S 762 mmHg 84%
08:00 +27°C° 0 mm 3 m/S 762 mmHg 81%
09:00 +28°C° 0 mm 3 m/S 762 mmHg 78%
10:00 +29°C° 0.5 mm 3 m/S 762 mmHg 79%
11:00 +29°C° 0.5 mm 4 m/S 762 mmHg 81%
12:00 +29°C° 0.5 mm 4 m/S 761 mmHg 83%
13:00 +29°C° 1.5 mm 4 m/S 761 mmHg 85%
14:00 +28°C° 1.5 mm 4 m/S 761 mmHg 88%
15:00 +27°C° 1.5 mm 4 m/S 760 mmHg 91%
16:00 +27°C° 0.4 mm 4 m/S 761 mmHg 93%
17:00 +26°C° 0.4 mm 4 m/S 761 mmHg 94%
18:00 +25°C° 0.4 mm 3 m/S 761 mmHg 96%
19:00 +25°C° 0 mm 3 m/S 762 mmHg 96%
20:00 +25°C° 0 mm 3 m/S 762 mmHg 96%
21:00 +25°C° 0 mm 3 m/S 762 mmHg 96%
22:00 +25°C° 0 mm 2 m/S 762 mmHg 96%
23:00 +25°C° 0 mm 2 m/S 762 mmHg 96%

übermorgen, 1 November, Sonntag

Zeit Temperatur Niederschläge Wind Luftdruck Luftfeuchtigkeit
00:00 +25°C° 0 mm 2 m/S 762 mmHg 95%
01:00 +25°C° 0 mm 2 m/S 762 mmHg 95%
02:00 +25°C° 0 mm 2 m/S 761 mmHg 95%
03:00 +25°C° 0 mm 2 m/S 761 mmHg 95%
04:00 +25°C° 0 mm 2 m/S 762 mmHg 94%
05:00 +25°C° 0 mm 2 m/S 762 mmHg 94%
06:00 +25°C° 0 mm 3 m/S 762 mmHg 93%
07:00 +26°C° 0 mm 3 m/S 762 mmHg 90%
08:00 +27°C° 0 mm 4 m/S 763 mmHg 86%
09:00 +27°C° 0 mm 4 m/S 763 mmHg 83%
10:00 +28°C° 0.1 mm 4 m/S 763 mmHg 80%
11:00 +28°C° 0.1 mm 5 m/S 762 mmHg 76%
12:00 +29°C° 0.1 mm 5 m/S 762 mmHg 73%
13:00 +28°C° 0 mm 5 m/S 761 mmHg 75%
14:00 +28°C° 0 mm 5 m/S 761 mmHg 78%
15:00 +27°C° 0 mm 5 m/S 761 mmHg 80%
16:00 +27°C° 0 mm 4 m/S 761 mmHg 81%
17:00 +26°C° 0 mm 4 m/S 761 mmHg 82%
18:00 +26°C° 0 mm 3 m/S 762 mmHg 83%
19:00 +26°C° 0 mm 3 m/S 762 mmHg 84%
20:00 +26°C° 0 mm 3 m/S 762 mmHg 84%
21:00 +26°C° 0 mm 3 m/S 762 mmHg 85%
22:00 +25°C° 0.1 mm 3 m/S 762 mmHg 88%
23:00 +25°C° 0.1 mm 3 m/S 762 mmHg 91%

2 November, Montag

Zeit Temperatur Niederschläge Wind Luftdruck Luftfeuchtigkeit
00:00 +25°C° 0.1 mm 3 m/S 762 mmHg 94%
01:00 +25°C° 0.1 mm 3 m/S 762 mmHg 94%
02:00 +25°C° 0.1 mm 3 m/S 761 mmHg 94%
03:00 +25°C° 0.1 mm 3 m/S 761 mmHg 94%
04:00 +25°C° 0.2 mm 3 m/S 761 mmHg 94%
05:00 +25°C° 0.2 mm 3 m/S 761 mmHg 94%
06:00 +25°C° 0.2 mm 3 m/S 761 mmHg 94%
07:00 +26°C° 0.9 mm 4 m/S 762 mmHg 92%
08:00 +27°C° 0.9 mm 4 m/S 762 mmHg 90%
09:00 +28°C° 0.9 mm 5 m/S 762 mmHg 88%
10:00 +28°C° 1.2 mm 5 m/S 762 mmHg 88%
11:00 +28°C° 1.2 mm 5 m/S 761 mmHg 88%
12:00 +29°C° 1.2 mm 5 m/S 761 mmHg 88%
13:00 +28°C° 1 mm 5 m/S 761 mmHg 88%
14:00 +28°C° 1 mm 5 m/S 760 mmHg 87%
15:00 +28°C° 1 mm 5 m/S 760 mmHg 86%
16:00 +27°C° 0.9 mm 5 m/S 760 mmHg 89%
17:00 +26°C° 0.9 mm 4 m/S 760 mmHg 91%
18:00 +25°C° 0.9 mm 4 m/S 761 mmHg 93%
19:00 +25°C° 1.2 mm 4 m/S 761 mmHg 94%
20:00 +25°C° 1.2 mm 5 m/S 762 mmHg 94%
21:00 +25°C° 1.2 mm 5 m/S 762 mmHg 94%
22:00 +23°C° 0 mm 4 m/S 762 mmHg 93%
23:00 +23°C° 0 mm 4 m/S 762 mmHg 93%

3 November, Dienstag

Zeit Temperatur Niederschläge Wind Luftdruck Luftfeuchtigkeit
00:00 +23°C° 0 mm 4 m/S 762 mmHg 92%
01:00 +22°C° 0 mm 4 m/S 762 mmHg 91%
02:00 +22°C° 0 mm 4 m/S 761 mmHg 90%
03:00 +22°C° 0 mm 4 m/S 761 mmHg 89%
04:00 +22°C° 0 mm 4 m/S 762 mmHg 88%
05:00 +21°C° 0 mm 3 m/S 762 mmHg 88%
06:00 +21°C° 0 mm 3 m/S 762 mmHg 87%
07:00 +23°C° 0 mm 4 m/S 762 mmHg 81%
08:00 +26°C° 0 mm 5 m/S 763 mmHg 76%
09:00 +27°C° 0 mm 5 m/S 763 mmHg 70%
10:00 +28°C° 0 mm 5 m/S 762 mmHg 68%
11:00 +28°C° 0 mm 5 m/S 762 mmHg 66%
12:00 +29°C° 0 mm 5 m/S 762 mmHg 65%
13:00 +29°C° 0 mm 5 m/S 761 mmHg 65%
14:00 +29°C° 0 mm 5 m/S 761 mmHg 66%
15:00 +28°C° 0 mm 6 m/S 760 mmHg 67%
16:00 +27°C° 0 mm 5 m/S 761 mmHg 72%
17:00 +25°C° 0 mm 4 m/S 761 mmHg 76%
18:00 +23°C° 0 mm 4 m/S 761 mmHg 81%
19:00 +24°C° 0 mm 3 m/S 762 mmHg 84%
20:00 +22°C° 0 mm 3 m/S 762 mmHg 86%
21:00 +22°C° 0 mm 3 m/S 763 mmHg 89%
22:00 +21°C° 0 mm 2 m/S 763 mmHg 90%
23:00 +21°C° 0 mm 2 m/S 762 mmHg 91%

4 November, Mittwoch

Zeit Temperatur Niederschläge Wind Luftdruck Luftfeuchtigkeit
00:00 +21°C° 0 mm 2 m/S 762 mmHg 91%
01:00 +21°C° 0 mm 2 m/S 762 mmHg 92%
02:00 +21°C° 0 mm 2 m/S 762 mmHg 93%
03:00 +21°C° 0 mm 2 m/S 761 mmHg 93%
04:00 +21°C° 0 mm 2 m/S 762 mmHg 93%
05:00 +21°C° 0 mm 2 m/S 762 mmHg 93%
06:00 +21°C° 0 mm 2 m/S 762 mmHg 92%
07:00 +24°C° 0.1 mm 3 m/S 763 mmHg 85%
08:00 +26°C° 0.1 mm 4 m/S 763 mmHg 77%
09:00 +28°C° 0.1 mm 4 m/S 763 mmHg 70%
10:00 +28°C° 0 mm 4 m/S 763 mmHg 65%
11:00 +29°C° 0 mm 4 m/S 763 mmHg 61%
12:00 +30°C° 0 mm 4 m/S 762 mmHg 57%
13:00 +30°C° 0 mm 4 m/S 762 mmHg 59%
14:00 +29°C° 0 mm 4 m/S 761 mmHg 61%
15:00 +29°C° 0 mm 4 m/S 761 mmHg 64%
16:00 +28°C° 0 mm 4 m/S 761 mmHg 70%
17:00 +26°C° 0 mm 4 m/S 761 mmHg 76%
18:00 +25°C° 0 mm 3 m/S 762 mmHg 83%
19:00 +24°C° 0 mm 3 m/S 762 mmHg 84%
20:00 +24°C° 0 mm 3 m/S 762 mmHg 86%
21:00 +24°C° 0 mm 3 m/S 763 mmHg 88%
22:00 +24°C° 0 mm 3 m/S 762 mmHg 89%
23:00 +22°C° 0 mm 3 m/S 762 mmHg 90%
Mehr zeigen